Havre, MT

1:36 PM MDT on July 26, 2017 (GMT -0600)
Havre City-County

Weather History for KHVR - October, 2012

Change the Weather History Date:

Saturday, October 6, 2012

  Actual Average Record
Temperature  
Mean Temperature 39 °F 49 °F  
Max Temperature 55 °F 63 °F 87 °F (1960)
Min Temperature 23 °F 34 °F 12 °F (2000)
Degree Days  
Heating Degree Days 26 16  
Month to date heating degree days 120 93  
Since 1 July heating degree days 334 450  
Cooling Degree Days 0 0  
Month to date cooling degree days 0 0  
Year to date cooling degree days 507 386  
Moisture  
Dew Point 28 °F    
Average Humidity 64    
Maximum Humidity 92    
Minimum Humidity 35    
Precipitation  
Precipitation 0.00 in 0.02 in 0.57 in (1985)
Month to date precipitation 0.81 0.15  
Year to date precipitation 11.14 9.94  
Snow  
Snow 0.00 in 0.00 in 3.80 in (1959)
Month to date snowfall 0.0 0.2  
Since 1 July snowfall 0.0 0.5  
Since 1 September snowfall 0.0 0.5  
Snow Depth 0.00 in    
Sea Level Pressure  
Sea Level Pressure 30.28 in    
Wind  
Wind Speed 8 mph (WSW)    
Max Wind Speed 25 mph    
Max Gust Speed 30 mph    
Visibility 10 miles    
Events      
T = Trace of Precipitation, MM = Missing Value Source: NWS Daily Summary

Daily Weather History Graph

Daily Weather History Graph

Search for Another Location

Airport or City:

Trip Planner

Search our weather history database for the weather conditions in past years. The results will help you decide how hot, cold, wet, or windy it might be!

Date:

Astronomy

Oct. 06, 2012 Rise Set
Actual Time 7:26 AM MDT 6:46 PM MDT
Civil Twilight 6:55 AM MDT 7:17 PM MDT
Nautical Twilight 6:18 AM MDT 7:54 PM MDT
Astronomical Twilight 5:42 AM MDT 8:30 PM MDT
Moon 10:43 PM MDT (10/6) 1:45 PM MDT (10/6)
Length of Visible Light 12h 22m
Length of Day
11h 20m
Waning Gibbous, 65% of the Moon is Illuminated
Oct 6
Waning Gibbous
Oct 8
Last Quarter
Oct 15
New
Oct 21
First Quarter
Oct 29
Full

Hourly Weather History & Observations

Time (MDT) Temp. Windchill Dew Point Humidity Pressure Visibility Wind Dir Wind Speed Gust Speed Precip Events Conditions
12:53 AM 28.0 °F 24.2 °F 25.0 °F 88% 30.47 in 10.0 mi West 3.5 mph - N/A   Clear
1:53 AM 26.1 °F - 23.0 °F 88% 30.45 in 10.0 mi Calm Calm - N/A   Clear
2:53 AM 27.0 °F - 24.1 °F 89% 30.45 in 10.0 mi Calm Calm - N/A   Clear
4:53 AM 28.0 °F 20.0 °F 25.0 °F 88% 30.41 in 10.0 mi SW 8.1 mph - N/A   Clear
5:53 AM 26.1 °F 20.5 °F 23.0 °F 88% 30.40 in 10.0 mi SW 4.6 mph - N/A   Clear
6:53 AM 27.0 °F 21.6 °F 24.1 °F 89% 30.40 in 10.0 mi SSW 4.6 mph - N/A   Clear
7:53 AM 24.8 °F 20.5 °F 21.2 °F 86% 30.30 in 10.0 mi South 3.5 mph - N/A   Clear
8:53 AM 28.9 °F - 26.1 °F 89% 30.38 in 10.0 mi Calm Calm - N/A   Clear
9:53 AM 34.0 °F 28.0 °F 28.9 °F 82% 30.35 in 10.0 mi SSW 6.9 mph - N/A   Clear
10:53 AM 42.1 °F 32.8 °F 26.1 °F 53% 30.32 in 10.0 mi SW 21.9 mph 28.8 mph N/A   Scattered Clouds
11:53 AM 46.0 °F 38.3 °F 25.0 °F 44% 30.29 in 10.0 mi SW 20.7 mph 26.5 mph N/A   Overcast
12:53 PM 46.9 °F - 27.0 °F 46% 30.28 in 10.0 mi SW 20.7 mph - N/A   Mostly Cloudy
1:53 PM 50.0 °F - 28.0 °F 43% 30.25 in 10.0 mi WSW 17.3 mph 24.2 mph N/A   Mostly Cloudy
2:53 PM 53.1 °F - 26.1 °F 35% 30.23 in 10.0 mi WSW 13.8 mph 18.4 mph N/A   Clear
3:53 PM 54.0 °F - 27.0 °F 35% 30.21 in 10.0 mi NW 10.4 mph - N/A   Mostly Cloudy
4:53 PM 54.0 °F - 28.0 °F 37% 30.20 in 10.0 mi NW 9.2 mph - N/A   Overcast
5:53 PM 54.0 °F - 28.9 °F 38% 30.19 in 10.0 mi NW 12.7 mph - N/A   Overcast
6:53 PM 50.0 °F - 34.0 °F 54% 30.19 in 10.0 mi WNW 5.8 mph - N/A   Overcast
7:53 PM 39.9 °F 37.8 °F 33.1 °F 77% 30.21 in 10.0 mi West 3.5 mph - N/A   Clear
8:53 PM 37.4 °F 34.9 °F 33.8 °F 87% 30.13 in 10.0 mi West 3.5 mph - N/A   Clear
9:53 PM 39.9 °F 34.5 °F 34.0 °F 79% 30.19 in 10.0 mi SW 8.1 mph - N/A   Clear
10:53 PM 39.9 °F 33.4 °F 36.0 °F 86% 30.17 in 10.0 mi SW 10.4 mph - N/A   Clear
11:53 PM 37.9 °F 32.7 °F 35.1 °F 89% 30.16 in 10.0 mi WSW 6.9 mph - N/A   Clear